Total_Precipitation_Accumulation
0.43 0.41 0.39 0.34 0.32 0.26 0.23 0.22 0.18 0.12 0.07 0.05 0.04 0.04 0.03 0.03 0.03 0.03 0.02 0.02 0.02 0.02 0.02 0.02 0.02 0.02 0.01 0.00 0.00 0.00 0.00 0.00 0.00 0.00 0.00 0.00 0.00 0.00 0.00 0.00 0.00 0.00 0.00 0.00 0.00 0.03 0.02
0.40 0.43 0.43 0.40 0.38 0.35 0.31 0.25 0.17 0.11 0.07 0.06 0.04 0.04 0.02 0.03 0.03 0.03 0.03 0.02 0.02 0.02 0.02 0.02 0.02 0.03 0.00 0.00 0.00 0.00 0.00 0.00 0.00 0.00 0.00 0.00 0.00 0.00 0.00 0.00 0.00 0.00 0.00 0.00 0.00 0.02 0.02
0.51 0.41 0.34 0.31 0.27 0.24 0.23 0.22 0.22 0.23 0.20 0.15 0.10 0.06 0.04 0.02 0.03 0.02 0.02 0.02 0.02 0.02 0.03 0.02 0.02 0.02 0.00 0.00 0.00 0.00 0.00 0.00 0.00 0.00 0.00 0.00 0.00 0.00 0.00 0.00 0.00 0.00 0.00 0.00 0.00 0.01 0.02
0.52 0.47 0.42 0.42 0.41 0.33 0.29 0.30 0.29 0.26 0.22 0.17 0.12 0.07 0.05 0.03 0.03 0.02 0.02 0.02 0.02 0.02 0.03 0.03 0.03 0.02 0.00 0.00 0.00 0.00 0.00 0.00 0.00 0.00 0.00 0.00 0.00 0.00 0.00 0.00 0.00 0.00 0.00 0.00 0.02 0.00 0.02
0.46 0.37 0.31 0.28 0.24 0.22 0.21 0.20 0.25 0.30 0.32 0.31 0.30 0.24 0.17 0.08 0.05 0.04 0.02 0.02 0.02 0.03 0.03 0.03 0.01 0.01 0.00 0.00 0.00 0.00 0.00 0.02 0.01 0.00 0.00 0.00 0.00 0.00 0.00 0.00 0.00 0.00 0.00 0.00 0.00 0.00 0.01
0.39 0.35 0.28 0.23 0.19 0.18 0.17 0.19 0.22 0.27 0.37 0.35 0.39 0.43 0.33 0.19 0.12 0.06 0.02 0.02 0.02 0.02 0.01 0.00 0.01 0.01 0.00 0.00 0.00 0.00 0.00 0.01 0.02 0.00 0.00 0.00 0.00 0.00 0.00 0.00 0.00 0.00 0.00 0.00 0.00 0.00 0.00
0.40 0.35 0.31 0.30 0.26 0.21 0.17 0.16 0.16 0.20 0.26 0.27 0.29 0.31 0.32 0.26 0.17 0.10 0.03 0.01 0.01 0.00 0.00 0.00 0.00 0.00 0.00 0.00 0.00 0.00 0.00 0.00 0.00 0.00 0.00 0.01 0.00 0.01 0.00 0.00 0.01 0.01 0.01 0.03 0.01 0.00 0.00
0.35 0.34 0.31 0.29 0.21 0.19 0.19 0.21 0.21 0.19 0.16 0.14 0.10 0.12 0.13 0.18 0.16 0.06 0.01 0.00 0.00 0.03 0.05 0.00 0.00 0.00 0.00 0.00 0.00 0.00 0.00 0.00 0.01 0.05 0.02 0.04 0.04 0.01 0.00 0.01 0.03 0.05 0.09 0.04 0.01 0.01 0.06
0.46 0.38 0.35 0.34 0.33 0.27 0.22 0.22 0.20 0.18 0.17 0.14 0.14 0.13 0.12 0.10 0.08 0.02 0.01 0.00 0.00 0.00 0.02 0.00 0.00 0.00 0.00 0.00 0.01 0.00 0.00 0.00 0.02 0.06 0.06 0.07 0.03 0.00 0.01 0.02 0.02 0.02 0.02 0.00 0.01 0.05 0.17
0.55 0.47 0.43 0.39 0.35 0.32 0.31 0.33 0.32 0.25 0.19 0.13 0.12 0.17 0.19 0.12 0.05 0.00 0.00 0.00 0.00 0.00 0.07 0.00 0.00 0.03 0.04 0.01 0.01 0.00 0.00 0.00 0.01 0.01 0.02 0.04 0.00 0.01 0.04 0.04 0.04 0.06 0.02 0.01 0.02 0.17 0.20
0.47 0.45 0.45 0.42 0.37 0.33 0.32 0.33 0.31 0.28 0.23 0.19 0.18 0.16 0.20 0.21 0.03 0.01 0.00 0.00 0.00 0.08 0.14 0.00 0.01 0.04 0.01 0.01 0.01 0.01 0.00 0.01 0.02 0.01 0.04 0.06 0.01 0.02 0.03 0.02 0.02 0.02 0.01 0.04 0.09 0.12 0.17
0.51 0.41 0.42 0.43 0.44 0.42 0.37 0.38 0.37 0.26 0.22 0.15 0.17 0.23 0.37 0.19 0.06 0.01 0.01 0.03 0.14 0.34 0.18 0.00 0.01 0.02 0.02 0.00 0.00 0.00 0.00 0.01 0.01 0.02 0.02 0.02 0.02 0.07 0.05 0.01 0.02 0.06 0.06 0.20 0.22 0.17 0.24
0.55 0.49 0.45 0.45 0.44 0.42 0.43 0.39 0.30 0.23 0.25 0.26 0.27 0.30 0.34 0.12 0.09 0.03 0.05 0.22 0.47 0.32 0.02 0.00 0.01 0.00 0.02 0.05 0.06 0.08 0.08 0.12 0.10 0.06 0.08 0.07 0.08 0.02 0.01 0.05 0.03 0.06 0.16 0.37 0.52 0.43 0.16
0.68 0.56 0.51 0.49 0.43 0.41 0.37 0.34 0.32 0.30 0.29 0.33 0.42 0.46 0.33 0.14 0.10 0.10 0.27 0.56 0.43 0.06 0.01 0.00 0.00 0.01 0.13 0.20 0.17 0.18 0.09 0.08 0.03 0.02 0.08 0.16 0.24 0.05 0.01 0.02 0.03 0.06 0.15 0.32 0.70 0.53 0.27
0.75 0.66 0.58 0.50 0.44 0.41 0.38 0.36 0.34 0.36 0.40 0.50 0.74 0.52 0.39 0.16 0.15 0.31 0.85 0.82 0.12 0.02 0.03 0.02 0.03 0.12 0.25 0.15 0.23 0.19 0.06 0.08 0.02 0.02 0.27 0.36 0.43 0.03 0.02 0.03 0.03 0.03 0.08 0.11 0.53 0.52 0.72
0.94 0.87 0.75 0.65 0.58 0.51 0.50 0.48 0.45 0.49 0.58 0.72 0.67 0.62 0.29 0.16 0.33 0.67 1.25 0.64 0.07 0.01 0.01 0.05 0.34 0.30 0.33 0.16 0.21 0.15 0.13 0.07 0.04 0.01 0.12 0.39 0.86 0.07 0.06 0.07 0.04 0.03 0.09 0.43 0.86 1.12 0.81
1.10 0.98 0.84 0.67 0.62 0.57 0.52 0.55 0.61 0.60 0.81 0.87 0.98 1.07 0.41 0.32 1.04 1.52 1.09 0.20 0.01 0.00 0.02 0.13 0.39 0.35 0.33 0.43 0.35 0.47 0.46 0.22 0.05 0.12 0.13 0.25 0.88 0.19 0.04 0.14 0.03 0.02 0.13 0.39 0.62 0.37 0.97
1.36 1.13 1.00 0.81 0.71 0.68 0.63 0.65 0.76 0.89 1.04 1.48 1.86 1.44 0.58 0.90 1.67 1.18 0.42 0.08 0.02 0.01 0.00 0.04 0.23 0.43 0.52 0.56 0.52 1.07 0.61 0.33 0.04 0.17 0.23 0.07 0.31 0.11 0.04 0.03 0.03 0.03 0.05 0.20 0.75 0.74 1.04
1.66 1.42 1.17 1.01 0.89 0.89 0.78 0.84 0.95 1.16 1.30 1.71 2.45 1.71 1.43 1.20 1.31 0.59 0.19 0.07 0.03 0.02 0.02 0.02 0.10 0.44 0.63 0.67 0.80 0.73 0.67 0.20 0.01 0.02 0.07 0.14 0.25 0.28 0.27 0.19 0.37 0.20 0.12 0.21 0.45 0.88 1.50
1.68 1.56 1.31 1.16 1.12 1.09 0.95 0.95 1.12 1.35 1.61 1.98 2.87 2.23 2.89 2.47 0.85 0.31 0.29 0.19 0.13 0.03 0.11 0.09 0.15 0.45 0.53 0.51 0.40 0.55 0.61 0.18 0.06 0.01 0.01 0.10 0.24 0.43 0.60 0.65 0.76 0.62 0.53 0.42 0.90 1.43 1.05
1.90 1.62 1.41 1.28 1.20 1.20 1.15 1.05 1.15 1.56 2.03 3.07 3.76 1.56 0.96 1.44 0.75 0.35 0.38 0.53 0.43 0.33 0.18 0.13 0.22 0.23 0.25 0.42 0.26 0.24 0.35 0.25 0.16 0.06 0.09 0.17 0.56 0.51 0.48 0.62 0.47 0.68 1.14 1.18 0.90 0.75 0.85
1.90 1.66 1.49 1.39 1.30 1.30 1.19 1.16 1.14 1.54 2.79 4.66 3.85 0.81 0.30 0.21 0.19 0.35 0.44 0.52 0.32 0.15 0.14 0.11 0.09 0.08 0.07 0.14 0.20 0.13 0.17 0.32 0.31 0.15 0.26 0.23 0.70 0.84 0.66 0.61 0.37 0.55 0.92 0.65 0.63 0.97 0.87
2.06 1.82 1.68 1.55 1.48 1.50 1.51 1.31 1.27 1.51 3.52 6.24 3.39 0.55 0.52 0.33 0.15 0.42 0.41 0.22 0.19 0.14 0.13 0.06 0.04 0.07 0.06 0.03 0.08 0.10 0.10 0.13 0.13 0.16 0.21 0.25 0.42 0.50 0.40 0.26 0.18 0.54 0.82 0.50 0.30 0.27 0.26
2.02 1.93 1.72 1.78 1.63 1.61 1.57 1.50 1.52 1.68 2.57 3.60 2.41 0.70 1.01 0.89 0.34 0.13 0.09 0.13 0.12 0.08 0.12 0.07 0.09 0.14 0.07 0.05 0.11 0.28 0.23 0.12 0.12 0.11 0.20 0.29 0.26 0.43 0.33 0.33 0.66 0.67 0.28 0.15 0.04 0.06 0.07
1.68 1.83 1.52 1.63 1.66 1.63 1.45 1.50 1.70 1.59 1.61 1.91 1.67 1.25 1.13 0.83 0.22 0.16 0.15 0.12 0.10 0.12 0.11 0.11 0.14 0.14 0.14 0.16 0.36 0.35 0.31 0.32 0.14 0.18 0.20 0.20 0.35 0.64 0.62 0.38 0.45 0.26 0.09 0.05 0.09 0.12 0.08
1.50 1.60 1.36 1.47 1.43 1.53 1.50 1.43 1.67 1.72 1.58 1.79 1.38 1.58 1.95 1.50 0.50 0.08 0.10 0.12 0.15 0.19 0.20 0.14 0.24 0.18 0.18 0.31 0.44 0.43 0.30 0.25 0.22 0.23 0.20 0.35 0.39 0.67 0.76 0.55 0.42 0.20 0.06 0.03 0.04 0.18 0.08
1.80 1.59 1.37 1.39 1.31 1.40 1.42 1.37 1.28 1.53 1.76 2.00 1.71 1.44 2.63 2.42 0.61 0.28 0.28 0.18 0.15 0.24 0.33 0.26 0.37 0.38 0.31 0.51 0.48 0.26 0.24 0.12 0.28 0.26 0.26 0.31 0.51 0.66 0.69 0.61 0.20 0.05 0.09 0.09 0.26 0.38 0.10
1.74 1.73 1.28 1.21 1.17 1.24 1.20 1.22 1.18 1.36 1.75 2.46 2.07 1.25 1.89 2.29 0.87 0.48 0.37 0.37 0.20 0.26 0.42 0.41 0.67 0.79 0.71 0.57 0.29 0.17 0.14 0.11 0.30 0.30 0.24 0.22 0.37 0.40 0.56 0.67 0.35 0.12 0.27 0.38 0.37 0.19 0.09
1.39 1.44 1.16 1.06 1.12 1.16 0.95 0.94 1.18 1.34 1.73 2.48 2.64 1.40 1.53 2.21 1.37 0.64 0.35 0.33 0.21 0.19 0.39 0.52 0.66 0.49 0.45 0.53 0.26 0.24 0.21 0.17 0.18 0.54 0.29 0.54 0.28 0.30 0.27 0.33 0.37 0.33 0.44 0.36 0.19 0.23 0.23